STARLINK-4780 (53848 NORAD) Tracking and Keplerian Element Data

This shows tracking and keplerian element data for the satellite.

Feedback or suggestion? Click here.




ElementValue
Catalog53848
NameSTARLINK-4780
Epoch Orbit130
Epoch Day324.91667824
Epoch Year2022
RAAN307.6719
Inclination53.2175
Eccentricity0.0001262
Argument of Perigee69.5955
Mean Anonmoly129.958
Mean Motion15.67527414
Decay Rate-0.01138378
L11 53848U 22114AG 22324.91667824 -.01138378 00000+0 -11342-1 0 9998
L22 53848 53.2175 307.6719 0001262 69.5955 129.9580 15.67527414 1306



Live tracking and technical data element details for STARLINK-4780 (NORAD 53848). STARLINK-4780 can be tracked NOW for your location showing map with azimuth and elevation plus other details from your city location.







IsCatalogInMostPopularTable: catalog: 53848, numindb: -1

Insert: records affected: 1


GetName: 53848 STARLINK-4780

Hit Count: inserted at: Thu, 08 Dec 2022 08:36:45 GMT